Total_Precipitation_Accumulation
0.00 0.00 0.00 0.00 0.00 0.00 0.00 0.00 0.00 0.00 0.00 0.00 0.00 0.00 0.00 0.00 0.00 0.00 0.00 0.00 0.01 0.04 0.07 0.10 0.14 0.19 0.18 0.17 0.17 0.16 0.16 0.21 0.27 0.37 0.47 0.59 0.71 0.77 0.76 0.80 0.91 1.06 1.13 1.14
0.00 0.00 0.00 0.00 0.00 0.00 0.00 0.00 0.00 0.00 0.00 0.00 0.00 0.00 0.00 0.00 0.00 0.00 0.00 0.00 0.01 0.03 0.05 0.08 0.17 0.33 0.31 0.26 0.23 0.23 0.28 0.43 0.63 0.86 1.06 1.24 1.36 1.45 1.46 1.50 1.58 1.63 1.66 1.64
0.00 0.00 0.00 0.00 0.00 0.00 0.00 0.00 0.00 0.00 0.00 0.00 0.00 0.00 0.00 0.00 0.00 0.00 0.00 0.00 0.01 0.03 0.05 0.07 0.16 0.26 0.34 0.33 0.36 0.36 0.43 0.73 1.09 1.37 1.64 1.87 2.08 2.23 2.22 2.10 2.06 2.06 2.03 1.94
0.00 0.00 0.00 0.00 0.00 0.00 0.00 0.00 0.00 0.00 0.00 0.00 0.00 0.00 0.00 0.00 0.00 0.00 0.00 0.01 0.01 0.02 0.03 0.04 0.12 0.21 0.26 0.37 0.44 0.48 0.62 0.93 1.26 1.59 2.02 2.36 2.55 2.70 2.80 2.63 2.40 2.15 1.94 1.82
0.00 0.00 0.00 0.00 0.00 0.00 0.00 0.00 0.00 0.00 0.00 0.00 0.00 0.00 0.01 0.01 0.01 0.01 0.01 0.01 0.01 0.01 0.02 0.05 0.13 0.22 0.30 0.38 0.39 0.46 0.68 1.06 1.62 2.12 2.47 2.65 2.80 2.87 2.74 2.47 2.17 1.88 1.60 1.31
0.00 0.00 0.00 0.00 0.00 0.00 0.00 0.00 0.00 0.00 0.00 0.00 0.00 0.00 0.01 0.02 0.02 0.02 0.02 0.03 0.04 0.05 0.04 0.06 0.13 0.27 0.39 0.38 0.39 0.51 0.80 1.33 1.90 2.32 2.62 2.76 2.71 2.52 2.29 1.99 1.62 1.39 1.15 0.88
0.00 0.00 0.00 0.00 0.00 0.00 0.00 0.00 0.00 0.00 0.00 0.00 0.00 0.01 0.03 0.04 0.03 0.03 0.04 0.05 0.07 0.09 0.10 0.12 0.18 0.30 0.44 0.46 0.55 0.79 1.10 1.50 1.79 2.03 2.21 2.20 2.09 1.86 1.63 1.40 1.16 0.97 0.74 0.52
0.00 0.00 0.00 0.00 0.00 0.00 0.00 0.00 0.00 0.00 0.00 0.00 0.01 0.02 0.06 0.06 0.04 0.04 0.05 0.07 0.09 0.13 0.15 0.21 0.33 0.44 0.54 0.60 0.65 0.85 1.10 1.36 1.48 1.54 1.63 1.59 1.48 1.33 1.14 0.96 0.76 0.57 0.42 0.31
0.00 0.00 0.00 0.00 0.00 0.00 0.00 0.00 0.00 0.00 0.00 0.00 0.01 0.06 0.11 0.09 0.06 0.05 0.06 0.07 0.10 0.13 0.17 0.26 0.37 0.47 0.55 0.57 0.64 0.76 0.89 1.03 1.11 1.16 1.18 1.13 1.04 0.91 0.76 0.58 0.44 0.34 0.26 0.19
0.01 0.00 0.00 0.00 0.00 0.00 0.00 0.00 0.00 0.00 0.00 0.00 0.01 0.07 0.16 0.17 0.12 0.09 0.09 0.12 0.13 0.15 0.19 0.26 0.32 0.37 0.40 0.42 0.50 0.56 0.62 0.68 0.75 0.79 0.79 0.73 0.63 0.55 0.45 0.35 0.27 0.20 0.15 0.11
0.04 0.02 0.01 0.00 0.00 0.00 0.00 0.00 0.00 0.00 0.00 0.00 0.01 0.11 0.21 0.27 0.25 0.18 0.16 0.18 0.17 0.18 0.23 0.26 0.28 0.29 0.27 0.28 0.35 0.39 0.42 0.51 0.56 0.55 0.50 0.41 0.36 0.30 0.24 0.19 0.15 0.12 0.09 0.08
0.06 0.04 0.03 0.02 0.01 0.00 0.00 0.00 0.00 0.00 0.00 0.00 0.02 0.20 0.31 0.40 0.36 0.26 0.23 0.24 0.25 0.26 0.26 0.24 0.23 0.22 0.20 0.22 0.25 0.28 0.31 0.34 0.34 0.32 0.28 0.24 0.21 0.18 0.16 0.14 0.12 0.10 0.10 0.09
0.02 0.04 0.06 0.07 0.04 0.01 0.00 0.00 0.00 0.00 0.00 0.00 0.03 0.26 0.41 0.46 0.45 0.38 0.38 0.43 0.46 0.41 0.34 0.30 0.28 0.25 0.23 0.23 0.24 0.23 0.22 0.21 0.20 0.18 0.16 0.15 0.14 0.15 0.14 0.14 0.13 0.11 0.10 0.09
0.02 0.03 0.09 0.19 0.17 0.05 0.02 0.01 0.01 0.01 0.01 0.02 0.08 0.27 0.40 0.49 0.54 0.64 0.71 0.66 0.55 0.43 0.36 0.37 0.41 0.39 0.32 0.25 0.22 0.20 0.19 0.17 0.15 0.13 0.12 0.11 0.10 0.10 0.11 0.12 0.12 0.12 0.12 0.12
0.02 0.03 0.04 0.08 0.07 0.06 0.06 0.05 0.05 0.04 0.04 0.10 0.21 0.35 0.53 0.72 0.82 0.90 0.90 0.70 0.52 0.43 0.43 0.49 0.51 0.44 0.37 0.32 0.28 0.24 0.22 0.19 0.16 0.15 0.14 0.13 0.13 0.13 0.14 0.14 0.15 0.16 0.15 0.12
0.01 0.03 0.03 0.05 0.06 0.06 0.11 0.12 0.12 0.16 0.19 0.23 0.38 0.59 0.88 1.01 0.99 1.02 1.01 0.85 0.67 0.60 0.60 0.58 0.55 0.52 0.48 0.44 0.40 0.35 0.32 0.29 0.26 0.25 0.23 0.23 0.22 0.22 0.20 0.18 0.16 0.13 0.10 0.07
0.01 0.02 0.02 0.04 0.06 0.08 0.17 0.19 0.17 0.22 0.28 0.35 0.47 0.62 0.83 0.94 0.99 1.05 1.13 1.05 0.84 0.73 0.70 0.68 0.65 0.62 0.59 0.56 0.53 0.49 0.46 0.41 0.37 0.35 0.33 0.32 0.30 0.26 0.19 0.12 0.08 0.06 0.05 0.04
0.01 0.02 0.03 0.03 0.06 0.15 0.18 0.13 0.17 0.25 0.29 0.35 0.39 0.48 0.60 0.64 0.68 0.72 0.76 0.77 0.74 0.69 0.68 0.69 0.71 0.72 0.68 0.63 0.58 0.54 0.50 0.47 0.44 0.43 0.40 0.35 0.28 0.21 0.13 0.07 0.06 0.05 0.05 0.04
0.01 0.03 0.04 0.05 0.08 0.16 0.20 0.11 0.10 0.22 0.38 0.38 0.38 0.34 0.37 0.37 0.36 0.43 0.50 0.51 0.56 0.66 0.72 0.75 0.75 0.70 0.64 0.56 0.52 0.52 0.52 0.48 0.43 0.38 0.30 0.21 0.14 0.10 0.06 0.04 0.04 0.03 0.03 0.02
0.02 0.03 0.07 0.10 0.16 0.24 0.28 0.11 0.08 0.17 0.49 0.47 0.46 0.40 0.38 0.40 0.40 0.38 0.38 0.40 0.44 0.48 0.50 0.49 0.46 0.42 0.41 0.40 0.39 0.38 0.35 0.30 0.24 0.17 0.11 0.07 0.05 0.04 0.03 0.03 0.02 0.02 0.01 0.01
0.09 0.08 0.11 0.17 0.24 0.30 0.14 0.06 0.13 0.31 0.48 0.55 0.49 0.38 0.34 0.34 0.30 0.27 0.26 0.28 0.28 0.28 0.28 0.25 0.24 0.26 0.27 0.26 0.23 0.20 0.17 0.13 0.09 0.05 0.03 0.03 0.02 0.02 0.01 0.01 0.01 0.01 0.01 0.02
0.11 0.15 0.19 0.23 0.31 0.37 0.14 0.09 0.21 0.30 0.36 0.40 0.32 0.24 0.19 0.13 0.10 0.09 0.09 0.11 0.12 0.13 0.13 0.12 0.13 0.13 0.12 0.11 0.09 0.08 0.07 0.05 0.03 0.02 0.02 0.02 0.01 0.01 0.01 0.01 0.02 0.02 0.03 0.03
0.04 0.07 0.13 0.23 0.32 0.30 0.16 0.15 0.20 0.27 0.35 0.30 0.20 0.11 0.07 0.03 0.02 0.02 0.04 0.05 0.06 0.06 0.07 0.07 0.06 0.06 0.07 0.06 0.06 0.06 0.05 0.04 0.04 0.04 0.04 0.03 0.02 0.01 0.01 0.01 0.02 0.03 0.04 0.03
0.03 0.01 0.03 0.09 0.18 0.18 0.16 0.16 0.16 0.17 0.22 0.18 0.14 0.10 0.05 0.01 0.01 0.02 0.04 0.05 0.04 0.04 0.05 0.05 0.05 0.06 0.07 0.07 0.08 0.08 0.07 0.07 0.10 0.10 0.07 0.04 0.04 0.03 0.03 0.03 0.03 0.03 0.05 0.03
0.02 0.01 0.02 0.07 0.14 0.19 0.23 0.17 0.12 0.12 0.13 0.13 0.13 0.11 0.05 0.01 0.02 0.03 0.03 0.03 0.03 0.04 0.05 0.05 0.06 0.07 0.06 0.05 0.06 0.07 0.08 0.10 0.13 0.12 0.08 0.04 0.03 0.03 0.04 0.05 0.04 0.03 0.03 0.01
0.01 0.01 0.04 0.10 0.13 0.20 0.27 0.19 0.12 0.16 0.17 0.16 0.13 0.10 0.07 0.04 0.03 0.04 0.04 0.05 0.05 0.05 0.05 0.05 0.05 0.04 0.03 0.03 0.03 0.04 0.06 0.07 0.09 0.09 0.06 0.03 0.02 0.03 0.03 0.06 0.07 0.03 0.01 0.00